Regional Weather Roundup
Issued by NWS Grand Forks, ND

Home | Current Version | Previous Version | Text Only | Print | Product List | Glossary On
Versions: 1 2 3 4 5 6 7 8 9 10 11 12 13 14 15 16 17 18 19 20 21 22 23 24 25 26 27 28 29 30 31 32 33 34 35 36 37 38 39 40 41 42 43 44 45 46 47 48 49 50
000
ASUS43 KFGF 042331
RWRFGF
PRAIRIE TO PINES  WEATHER ROUNDUP
NATIONAL WEATHER SERVICE EASTERN NORTH DAKOTA/GRAND FORKS ND
500 PM CST WED MAR 04 2015

 **SATELLITE DATA USED TO AUGMENT SKY COVER AT AUTOMATED STATIONS**
 *****  WEATHER ACROSS EASTERN NORTH DAKOTA  *****

CITY           SKY/WX    TMP DP  RH WIND       PRES   REMARKS
GRAND FORKS    MOSUNNY    3  -9  57 NW15G23   30.36R WCI -16
GRAND FRKS AFB SUNNY      2 -11  53 NW12      30.35R WCI -15
GRAND FRKS NWS   N/A      1 N/A N/A NW7         N/A  WCI -11
DEVILS LAKE    SUNNY      0 -13  55 W13       30.32R WCI -18
FARGO          MOSUNNY    4  -6  63 NW12      30.37R WCI -12
WAHPETON ARPT  PTCLDY     3  -8  60 NW15      30.36S WCI -15
$$

 ***** WEATHER ACROSS CENTRAL AND WESTERN NORTH DAKOTA  *****

CITY           SKY/WX    TMP DP  RH WIND       PRES   REMARKS
BISMARCK       SUNNY      6 -10  47 N9        30.34S WCI  -8
MINOT          SUNNY      0 -12  57 W7        30.32S WCI -13
JAMESTOWN      SUNNY      1 -10  60 NW15      30.32S WCI -18
MINOT AFB      SUNNY     -1 -10  65 NW12      30.32S WCI -18
GARRISON         N/A      0 -11  59 NW12      30.31S WCI -17
WILLISTON      SUNNY      7  -9  48 W7        30.29F WCI  -5
DICKINSON      SUNNY     11 -10  38 NW13      30.20S WCI  -4
HETTINGER      SUNNY     12  -9  38 NW15G22   30.23R WCI  -4
$$

 *****  OTHER AIRPORT OBSERVATIONS IN OUR AREA  *****

CITY           SKY/WX    TMP DP  RH WIND       PRES   REMARKS
WALHALLA         N/A      0 -11  60 NW13      30.35R WCI -18
GRAFTON AIRPOR NOT AVBL
VALLEY CITY AR MOCLDY     1  -8  66 NW14      30.33S WCI -17
CANDO          FAIR      -2 -11  65 W14       30.32S WCI -21
CAVALIER APRT  FAIR       1  -9  60 NW10      30.35R WCI -14
GWINNER        MOCLDY     5  -8  56 NW15      30.37R WCI -13
SHEYENNE NWR     N/A      4 -10  52 NW13      29.95S WCI -13
ROLLA          FAIR       0 -13  55 NW8       30.26S WCI -15
 ***** THE ABOVE OBSERVATIONS ARE NON NWS ARE NOT QUALITY
       CONTROLLED AND MAY MIS-REPORT RAIN FOR SNOW...
$$

  *****  WEATHER ACROSS NORTHERN MINNESOTA  *****

CITY           SKY/WX    TMP DP  RH WIND       PRES   REMARKS
FLAG ISLAND    CLEAR      1 -11  55 NW14      30.22S WCI -17
WARROAD        SUNNY      1 -11  55 W9        30.26R WCI -14
ROSEAU         SUNNY      0 -11  60 W13G18    30.28R WCI -18
HALLOCK        MOSUNNY    1  -9  60 NW13      30.33S WCI -16
THF RVR FALLS  MOSUNNY   -2 -17  50 NW15      30.30S WCI -22
BAUDETTE       CLEAR      1 -11  57 W12       30.22R WCI -16
WASKISH        CLEAR      0 -11  60 W10       30.25R WCI -17
CROOKSTON      SUNNY      1  -8  66 N16       30.36R WCI -18
$$
  *****  WEATHER ACROSS CENTRAL AND WEST MINNESOTA  *****

CITY           SKY/WX    TMP DP  RH WIND       PRES   REMARKS
FOSSTON        HAZE      -2  -9  71 NW12      30.30R VSB 1   WCI -20
BEMIDJI        MOSUNNY   -4 -13  66 NW13      30.26R WCI -23
PARK RAPIDS    PTSUNNY   -1 -11  62 NW14      30.24R WCI -20
ELBOW LAKE     MOCLDY     1  -5  76 NW18      30.32R HAZE    WCI -21
WADENA         SUNNY      0 -11  60 NW13G21   30.27R WCI -18
DETROIT LAKES  LGT SNOW   1  -4  78 NW15      30.29R WCI -18
MOORHEAD       CLOUDY     5  -2  72 NW15      30.36S HAZE    WCI -13
FERGUS FALLS   PTSUNNY    3  -9  55 NW20      30.36S WCI -18
MORRIS MN      MOSUNNY    1  -8  66 NW18      30.33R WCI -19
STAPLES        SUNNY     -2 -11  65 NW13      30.27R WCI -21
$$
  *****  WEATHER ELSEWHERE ACROSS MINNESOTA  *****

CITY           SKY/WX    TMP DP  RH WIND       PRES   REMARKS
DULUTH         CLEAR      3 -15  43 NW15G23   30.15R WCI -16
INTRNTL FALLS  CLEAR      1 -14  49 NW10      30.20R WCI -15
ELY            CLEAR      1 -15  46 NW8       30.14R WCI -12
CLOQUET        CLEAR      1 -17  42 NW15      30.19R WCI -18
WHEATON        SUNNY      0  -9  65 NW14      30.38R WCI -19
BRAINERD       SUNNY      2 -14  47 NW17      30.25R WCI -18
HIBBING        PTCLDY     1 -15  47 NW14      30.18R WCI -17
ALEXANDRIA     SUNNY      0 -13  54 NW16G23   30.28R WCI -20
SAINT CLOUD    MOSUNNY    3 -11  52 NW17G25   30.28R WCI -17
MINNEAPOLIS    PTSUNNY    8  -7  50 NW21G26   30.28R WCI -12
$$

  *****  WEATHER ACROSS SOUTH DAKOTA  *****

CITY           SKY/WX    TMP DP  RH WIND       PRES   REMARKS
SIOUX FALLS    MOSUNNY    7  -5  57 N22       30.34R WCI -14
BROOKINGS      NOT AVBL
WATERTOWN      MOSUNNY    0 -10  63 NW14      30.30S WCI -19
HURON          SUNNY      8  -6  52 N13       30.37S WCI  -8
SISSETON         N/A      3  -7  63 N22       30.34  WCI -19
ABERDEEN       SUNNY      3 -12  49 NW17      30.38R WCI -17
MITCHELL       PTSUNNY    9  -2  61 NW15      30.38S WCI  -8
PIERRE         SUNNY     14  -4  44 NW13      30.31S WCI   0
MOBRIDGE       SUNNY     12  -8  40 N12       30.29S WCI  -2
RAPID CITY     SUNNY     16   1  51 N15       30.20R WCI   1
$$

  *****  SOME WEATHER IN NEARBY STATES *****

CITY           SKY/WX    TMP DP  RH WIND       PRES   REMARKS
GLASGOW MT     SUNNY     17  -5  37 SW8       30.19F WCI   7
GREAT FALLS MT SUNNY     36   9  32 SW21G28   30.01F
CHEYENNE WY    SUNNY     19  -6  33 NW17G23   30.04S WCI   4
SCOTTSBLUFF NE SUNNY     26   3  37 NW13      30.16S WCI  15
OMAHA NE       MOSUNNY   26  -3  28 NW17      30.30S WCI  13
DES MOINES IA  MOSUNNY   25   5  42 NW22G30   30.27R WCI  10
DAVENPORT IA   PTCLDY    16   4  59 NW10      30.27S WCI   4
CHICAGO IL     MOCLDY    19   1  45 NW14      30.18S WCI   6
EAU CLAIRE WI  CLEAR      9 -10  42 NW17G25   30.21R WCI  -9
LA CROSSE WI   PTCLDY    14  -4  44 NW16      30.24S WCI  -2
$$

  *****  SOME NATIONAL WEATHER *****

CITY           SKY/WX    TMP DP  RH WIND       PRES   REMARKS
LA GUARDIA NY  LGT RAIN  44  39  82 SW12      29.87R
RALEIGH NC     MOCLDY    72  53  51 SW20G29   29.84F
ATLANTA GA     MOCLDY    73  59  61 SW14G22   29.92S
NEW ORLEANS LA PTSUNNY   78  67  68 S12       29.90S
OKLAHOMA CITY  LGT SNOW  25  19  80 N18       30.25R VSB 3/4 WCI  11
ALBUQUERQUE NM MOSUNNY   50  16  25 NW15G22   29.97R
SALT LAKE CITY MOSUNNY   39  19  44 NW9       30.23R
LOS ANGELES CA MOSUNNY   67  39  35 W12       30.07F
BOISE ID       SUNNY     45   9  23 W6        30.26S
SEATTLE WA     MOSUNNY   54  20  26 VRB6      30.28S
$$

*** WEATHER ACROSS MANITOBA...SASKATCHEWAN AND ONTARIO ***
                ***ONTARIO***

CITY           SKY/WX    TMP DP  RH WIND       PRES   REMARKS
GERALDTON      NOT AVBL
THUNDER BAY    NOT AVBL
SIOUX LOOKOUT  NOT AVBL
TORONTO        NOT AVBL
BIG TROUT LK   NOT AVBL
PICKLE LAKE    NOT AVBL
DRYDEN         NOT AVBL
KENORA         NOT AVBL
$$
                *** MANITOBA***

CITY           SKY/WX    TMP DP  RH WIND       PRES   REMARKS
BRANDON        NOT AVBL
DAUPHIN        SUNNY     -2 -11  65 W26       30.27R HAZE    WCI -28
ISLAND LAKE    NOT AVBL
PILOT MOUND    NOT AVBL
THE PAS        NOT AVBL
THOMPSON       NOT AVBL
WINNIPEG       NOT AVBL
$$
                ***SASKATCHEWAN***

CITY           SKY/WX    TMP DP  RH WIND       PRES   REMARKS
ESTEVAN        NOT AVBL
KINDERSLEY     NOT AVBL
LLOYDMINSTER   NOT AVBL
PRINCE ALBERT  NOT AVBL
REGINA         NOT AVBL
YORKTON        NOT AVBL
N. BATTLEFORD  NOT AVBL
LA RONGE       NOT AVBL
SASKATOON      NOT AVBL
SWIFT CURRENT  NOT AVBL
$$
NOTE: THESE ARE AUTOMATED STATIONS WITH LIMITED QUALITY CONTROL
      "FAIR" INDICATES FEW OR NO CLOUDS BELOW 12,000 FEET WITH NO
      SIGNIFICANT WEATHER AND/OR OBSTRUCTIONS TO VISIBILITY.
      SKY/WX - SKY CONDITION AND SIGNIFICANT WEATHER.
      TMP - AIR TEMPERATURE.    DP   - DEWPOINT TEMPERATURE.
      RH  - RELATIVE HUMIDITY.  PRES - PRESSURE.
      HX  - HEAT INDEX.         WCI  - WIND CHILL INDEX.
$


USA.gov is the U.S. government's official web portal to all federal, state and local government web resources and services.